User: anonymous   Login
Location: Goheenville
(40.9070°N, 79.3720°W)
Time: 15:25:37
(UTC-05:00)
Language:

Meteor 2-10 Rocket - Orbit

View from above orbital plane
View from above orbital plane
View from above satellite
View from above satellite

Ground track
Ground track

The orbit data is extracted from the following two-line orbital elements,

1 14453U 83109B   17022.16624827  .00000041  00000-0  11054-4 0  9996
2 14453  81.1656 253.1939 0105781 125.8035 235.3032 14.24665610726732
Epoch (UTC): 22 January 2017 03:59:23
Eccentricity: 0.0105781
inclination: 81.1656°
perigee height: 733 km
apogee height: 885 km
right ascension of ascending node: 253.1939°
argument of perigee: 125.8035°
revolutions per day: 14.24665610
mean anomaly at epoch: 235.3032°
orbit number at epoch: 72673

The dashed part of the orbit path shows where the satellite is in the earth's shadow,  

DLR